Weather History for Tulsa Jones, OK

Change the Weather History Date:

Thursday, January 17, 2013

  Actual Average (KTUL) Record (KTUL)
Temperature  
Mean Temperature 40 °F 38 °F  
Max Temperature 55 °F 48 °F 73 °F (1952)
Min Temperature 24 °F 27 °F -3 °F (1930)
Degree Days  
Heating Degree Days 26 27  
Month to date heating degree days 474  
Since 1 July heating degree days 1902  
Moisture  
Dew Point 25 °F    
Average Humidity 60    
Maximum Humidity 81    
Minimum Humidity 34    
Precipitation  
Precipitation 0.00 in 0.05 in 0.94 in (2004)
Month to date precipitation 0.88  
Year to date precipitation 0.88  
Sea Level Pressure  
Sea Level Pressure 30.44 in    
Wind  
Wind Speed 4 mph (NNE)    
Max Wind Speed 13 mph    
Max Gust Speed 21 mph    
Visibility 10 miles    
Events      
T = Trace of Precipitation, MM = Missing Value Source: NWS Daily Summary

Daily Weather History Graph

Daily Weather History Graph

Search for Another Location

Airport:

Trip Planner

Search our weather history database for the weather conditions in past years. The results will help you decide how hot, cold, wet, or windy it might be!

Date:

Astronomy

Jan. 17, 2013 Rise Set
Actual Time 7:33 AM CST 5:35 PM CST
Civil Twilight 7:05 AM CST 6:03 PM CST
Nautical Twilight 6:33 AM CST 6:34 PM CST
Astronomical Twilight 6:03 AM CST 7:05 PM CST
Moon 10:54 AM CST (1/17) No Moon Set
Length of Visible Light 10h 57m
Length of Day
10h 02m
Waxing Crescent, 38% of the Moon is Illuminated
Jan 17
Waxing Crescent
Jan 18
First Quarter
Jan 26
Full
Feb 3
Last Quarter
Feb 10
New

Hourly Weather History & Observations

Time (CST) Temp. Windchill Dew Point Humidity Pressure Visibility Wind Dir Wind Speed Gust Speed Precip Events Conditions
12:53 AM 26.1 °F - 18.0 °F 71% 30.27 in 10.0 mi Calm Calm - N/A   Clear
1:53 AM 26.1 °F - 18.0 °F 71% 30.28 in 10.0 mi Calm Calm - N/A   Clear
2:53 AM 25.0 °F - 18.0 °F 75% 30.30 in 10.0 mi Calm Calm - N/A   Clear
3:53 AM 24.1 °F - 18.0 °F 77% 30.32 in 10.0 mi Calm Calm - N/A   Clear
5:53 AM 37.9 °F 32.1 °F 28.0 °F 68% 30.36 in 10.0 mi North 8.1 mph 18.4 mph N/A   Clear
6:53 AM 37.0 °F 31.0 °F 28.0 °F 70% 30.40 in 10.0 mi North 8.1 mph - N/A   Clear
7:53 AM 37.9 °F 32.7 °F 28.9 °F 70% 30.43 in 10.0 mi North 6.9 mph - N/A   Clear
8:53 AM 41.0 °F 34.3 °F 28.9 °F 62% 30.45 in 10.0 mi North 11.5 mph - N/A   Clear
9:53 AM 43.0 °F 37.2 °F 30.0 °F 60% 30.49 in 10.0 mi North 10.4 mph 18.4 mph N/A   Clear
10:53 AM 46.9 °F - 30.0 °F 52% 30.50 in 10.0 mi North 6.9 mph - N/A   Clear
11:53 AM 50.0 °F - 28.0 °F 43% 30.49 in 10.0 mi NNE 11.5 mph 20.7 mph N/A   Clear
12:53 PM 52.0 °F - 28.0 °F 40% 30.47 in 10.0 mi North 10.4 mph 18.4 mph N/A   Clear
1:53 PM 53.1 °F - 27.0 °F 37% 30.46 in 10.0 mi North 12.7 mph 19.6 mph N/A   Clear
2:53 PM 55.0 °F - 27.0 °F 34% 30.45 in 10.0 mi North 10.4 mph - N/A   Clear
3:53 PM 54.0 °F - 26.1 °F 34% 30.46 in 10.0 mi North 9.2 mph 18.4 mph N/A   Clear
4:53 PM 53.1 °F - 26.1 °F 35% 30.47 in 10.0 mi NE 6.9 mph - N/A   Clear
5:53 PM 45.0 °F - 26.1 °F 48% 30.49 in 10.0 mi Calm Calm - N/A   Clear
6:53 PM 37.0 °F - 26.1 °F 65% 30.50 in 10.0 mi Calm Calm - N/A   Clear
7:53 PM 35.1 °F - 26.1 °F 70% 30.51 in 10.0 mi Calm Calm - N/A   Clear
8:53 PM 33.1 °F - 25.0 °F 72% 30.52 in 10.0 mi Calm Calm - N/A   Clear
9:53 PM 32.0 °F - 25.0 °F 75% 30.52 in 10.0 mi Calm Calm - N/A   Clear
10:53 PM 30.0 °F - 24.1 °F 79% 30.51 in 10.0 mi Calm Calm - N/A   Clear
11:53 PM 28.0 °F - 23.0 °F 81% 30.52 in 10.0 mi Calm Calm - N/A   Clear